星链-3959 (STARLINK-3959 )

导读

STARLINK-3959是美国太空探索技术公司(SpaceX)发射的星链(Starlink)互联网卫星,于2022年5月13日发射升空,属于星链卫星互联网计划的组成部分,旨在为全球用户提供低延迟、高速率的宽带互联网服务,目前在轨运行服务全球网络覆盖。

基本信息
目录编号:
52564
目录名称:
STARLINK-3959
国际标识:
2022-051AH
轨道中心:
EARTH
卫星名称:
星链-3959
卫星全名:
星链-3959 (STARLINK-3959 )
卫星状态:
在轨 (已飞行1583 天)
发射日期:
2022-05-13 UTC
国别 :
美国 (US)
星等 :
--
该卫星已列入 空间交会检测服务 Space Conjunction Data Service (SCDS) ,当前飞行风险评估等级: 无高风险
轨道信息
数据来源 国际轨道数据
星历时间: 2026-09-12T08:00:02+0800
7小时前
查看轨道信息
半长轴: 6848.875km
偏心率: 0.0001412
轨道倾角: 53.162°
近地点辐角 91.268°
升交点赤经 14.053°
平近点角 268.979°
近地点: 469.77km
远地点: 471.706km
周期: 94.013分钟
每日圈数: 15.317008
详细信息
固有亮度:
5
最大亮度:
2.5
卫星平台:
Starlink v1.5
覆盖范围:
全球
运营商:
太空探索技术公司
运营商所在国:
美国
制造商(研发单位):
太空探索技术公司
制造商所在国:
美国
使用方式:
暂无
卫星简介
星链(Starlink)计划是由太空探索技术公司(SpaceX)提出的一个巨型低轨卫星互联网星座项目,计划在2019年至2024年间在太空搭建由约1.2万颗卫星组成的“星链”网络,其中1584颗将部署在地球上空550千米处的近地轨道,并从2020年开始工作。该卫星仍在工作。
2D轨道图
3D轨道图
轨道高度分析图
轨道倾角分析图
轨道综合分析图
查看轨道综合分析图
交会数据列表
事件ID 空间交会对象 最接近时刻(TCA) 交会距离 交会风险概率(CRP) 交会风险指数(CRI) 操作
CDM_260912-182603-829905-256421
2026-09-12T
18:26:30+0000
2.233 km
极远距离
2.0188E-6 低风险 0.41
CDM_260914-110905-256406-872821
2026-09-14T
11:09:36+0000
2.285 km
极远距离
1.928663E-6 低风险 0.41
CDM_260913-210405-256406-518821
2026-09-13T
21:04:42+0000
2.347 km
极远距离
1.84188E-6 低风险 0.4
CDM_260912-213105-256406-798121
2026-09-12T
21:31:00+0000
2.637 km
极远距离
1.433588E-6 低风险 0.38
CDM_260914-023205-256406-948721
2026-09-14T
02:32:09+0000
2.543 km
极远距离
1.424116E-6 低风险 0.38
CDM_260913-153805-256406-755121
2026-09-13T
15:38:55+0000
2.783 km
极远距离
1.421461E-6 低风险 0.38
CDM_260912-090005-256406-942721
2026-09-12T
09:00:58+0000
2.683 km
极远距离
1.391109E-6 低风险 0.38
CDM_260914-023005-256406-543421
2026-09-14T
02:30:28+0000
2.952 km
极远距离
1.215342E-6 低风险 0.37
CDM_260914-071005-256406-891721
2026-09-14T
07:10:05+0000
2.958 km
极远距离
1.15462E-6 低风险 0.36
CDM_260912-160005-256406-974822
2026-09-12T
16:00:34+0000
2.990 km
极远距离
1.120778E-6 低风险 0.36
与全量物体交会距离演化趋势
与全量物体交会风险概率演化趋势